Weather History for College Station, TX

Change the Weather History Date:

Monday, October 22, 2012

  Actual Average Record
Temperature  
Mean Temperature 80 °F 69 °F  
Max Temperature 88 °F 80 °F 95 °F (1939)
Min Temperature 71 °F 59 °F 38 °F (1911)
Degree Days  
Heating Degree Days 0 1  
Month to date heating degree days 12 12  
Since 1 July heating degree days 12 14  
Cooling Degree Days 15 6  
Month to date cooling degree days 188 173  
Year to date cooling degree days 3447 2969  
Growing Degree Days 30 (Base 50)    
Moisture  
Dew Point 69 °F    
Average Humidity 72    
Maximum Humidity 93    
Minimum Humidity 50    
Precipitation  
Precipitation T in 0.17 in 5.12 in (1949)
Month to date precipitation 1.81 3.54  
Year to date precipitation 36.56 32.24  
Sea Level Pressure  
Sea Level Pressure 29.96 in    
Wind  
Wind Speed 10 mph (SSE)    
Max Wind Speed 18 mph    
Max Gust Speed 24 mph    
Visibility 10 miles    
Events      
T = Trace of Precipitation, MM = Missing Value Source: NWS Daily Summary

Daily Weather History Graph

Daily Weather History Graph

Search for Another Location

Airport:

Trip Planner

Search our weather history database for the weather conditions in past years. The results will help you decide how hot, cold, wet, or windy it might be!

Date:

Astronomy

Oct. 22, 2012 Rise Set
Actual Time 7:32 AM CDT 6:46 PM CDT
Civil Twilight 7:08 AM CDT 7:10 PM CDT
Nautical Twilight 6:40 AM CDT 7:38 PM CDT
Astronomical Twilight 6:12 AM CDT 8:06 PM CDT
Moon 2:29 PM CDT (10/22) 12:49 AM CDT (10/22)
Length of Visible Light 12h 02m
Length of Day
11h 13m
First Quarter, 56% of the Moon is Illuminated
Oct 22
First Quarter
Oct 29
Full
Nov 6
Last Quarter
Nov 13
New
Nov 20
First Quarter

Hourly Weather History & Observations

Time (CDT) Temp. Heat Index Dew Point Humidity Pressure Visibility Wind Dir Wind Speed Gust Speed Precip Events Conditions
12:53 AM 73.0 °F - 69.1 °F 87% 29.94 in 10.0 mi South 9.2 mph - N/A   Scattered Clouds
1:44 AM 71.6 °F - 69.8 °F 94% 29.96 in 10.0 mi South 5.8 mph - N/A   Mostly Cloudy
1:53 AM 72.0 °F - 70.0 °F 93% 29.95 in 10.0 mi South 5.8 mph - N/A   Mostly Cloudy
2:02 AM 73.4 °F - 69.8 °F 88% 29.95 in 10.0 mi SSE 6.9 mph - N/A   Overcast
2:11 AM 73.4 °F - 69.8 °F 88% 29.95 in 10.0 mi SSE 5.8 mph - N/A   Overcast
2:53 AM 73.0 °F - 71.1 °F 93% 29.94 in 10.0 mi SSE 6.9 mph - N/A   Overcast
3:34 AM 73.4 °F - 71.6 °F 94% 29.95 in 10.0 mi SSE 6.9 mph - N/A   Overcast
3:53 AM 73.0 °F - 71.1 °F 93% 29.94 in 10.0 mi SSE 5.8 mph - N/A   Overcast
4:23 AM 73.4 °F - 71.6 °F 94% 29.95 in 10.0 mi SSE 9.2 mph - N/A   Overcast
4:53 AM 73.0 °F - 71.1 °F 93% 29.94 in 10.0 mi SSE 5.8 mph - N/A   Mostly Cloudy
5:48 AM 73.4 °F - 71.6 °F 94% 29.96 in 10.0 mi SSE 5.8 mph - N/A   Overcast
5:53 AM 73.9 °F - 71.1 °F 91% 29.95 in 10.0 mi SE 5.8 mph - N/A   Overcast
6:53 AM 73.9 °F - 70.0 °F 87% 29.96 in 10.0 mi SE 8.1 mph - N/A   Overcast
7:09 AM 73.4 °F - 69.8 °F 88% 29.97 in 10.0 mi SE 8.1 mph - N/A   Overcast
7:53 AM 73.9 °F - 70.0 °F 87% 29.97 in 10.0 mi SE 6.9 mph - 0.00 in   Overcast
8:09 AM 73.4 °F - 71.6 °F 94% 29.99 in 10.0 mi SE 6.9 mph - N/A   Overcast
8:36 AM 73.4 °F - 71.6 °F 94% 29.99 in 10.0 mi SE 9.2 mph - N/A   Overcast
8:53 AM 75.0 °F - 71.1 °F 87% 29.98 in 10.0 mi SE 9.2 mph - N/A   Overcast
9:14 AM 75.2 °F - 71.6 °F 89% 30.00 in 10.0 mi SE 8.1 mph - N/A   Overcast
9:53 AM 77.0 °F - 72.0 °F 84% 29.99 in 6.0 mi SE 11.5 mph - N/A   Haze
10:53 AM 80.1 °F 83.6 °F 71.1 °F 74% 29.99 in 10.0 mi SSE 13.8 mph 18.4 mph N/A   Overcast
11:53 AM 82.9 °F 87.5 °F 71.1 °F 67% 30.00 in 10.0 mi SSE 16.1 mph - N/A   Overcast
12:28 PM 82.4 °F 86.3 °F 69.8 °F 66% 30.01 in 10.0 mi South 15.0 mph - N/A   Overcast
12:53 PM 84.0 °F 88.4 °F 70.0 °F 63% 29.99 in 10.0 mi SSE 17.3 mph - N/A   Overcast
1:53 PM 84.0 °F 87.0 °F 68.0 °F 58% 29.96 in 10.0 mi South 15.0 mph - N/A   Overcast
2:53 PM 88.0 °F 91.4 °F 68.0 °F 51% 29.93 in 10.0 mi SE 13.8 mph - N/A   Scattered Clouds
3:53 PM 84.9 °F 87.1 °F 66.0 °F 53% 29.94 in 10.0 mi SSE 11.5 mph 20.7 mph N/A   Mostly Cloudy
4:53 PM 87.1 °F 89.2 °F 66.0 °F 49% 29.93 in 10.0 mi SSE 10.4 mph - N/A   Scattered Clouds
5:53 PM 84.0 °F 85.4 °F 64.0 °F 51% 29.92 in 10.0 mi SSE 10.4 mph - N/A   Clear
6:53 PM 81.0 °F 82.5 °F 64.0 °F 56% 29.94 in 10.0 mi SE 6.9 mph - N/A   Mostly Cloudy
7:53 PM 78.1 °F - 64.0 °F 62% 29.94 in 10.0 mi SE 5.8 mph - N/A   Clear
8:53 PM 77.0 °F - 63.0 °F 62% 29.96 in 10.0 mi SSE 10.4 mph - N/A   Clear
9:53 PM 75.0 °F - 64.9 °F 71% 29.96 in 10.0 mi SSE 8.1 mph - N/A   Clear
10:53 PM 73.9 °F - 66.9 °F 79% 29.96 in 10.0 mi SSE 11.5 mph - N/A   Clear
11:53 PM 72.0 °F - 68.0 °F 87% 29.96 in 10.0 mi SSE 10.4 mph - N/A   Clear